Kezdőlap
METAR-TAF:

METAR-TAF

Repülőterek :

Vinton Veterans Memorial Airpark

Vinton, Iowa, Amerikai Egyesült Államok

földrajzi szélesség: 42-13-07N, földrajzi hosszúság: 092-01-33W, magasság: 258 m

Jelenlegi meteorológiai megfigyelések

A jelentés 7 perccel ezelõtt készült, 23:35 UTC
Nyugat-északnyugati szél 14 kt széllökések: 21 kt
Hőmérséklet -9°C
Páratartalom 79%
Légköri nyomás 1010 hPa
Látótávolság: 16.1 km
Derült ég

METAR: KVTI 092335Z AUTO 29014G21KT 10SM CLR M09/M12 A2983 RMK AO2 T10911120

Idő: 17:42 (23:42 UTC)


TAF: hiányzik

Meteorológiai megfigyelések és előrejelzések több, mint 4000 repülőtéren (METAR és TAF jelentéseket).

A térképen piros és sárga pontok jelzik az elérhető meteorológiai állomásokat.

Mozgassa az egeret a pont fölött, hogy megjelenjen az állomás neve.

Azután kattintson az időjárási megfigyelések és előrejelzések megtekintéséhez.

A térkép megváltoztatása: kattintson a fekete keresztel jelölt zöld gombra ráközelítéshez, a vonallal jelölt zöld gombra távolításhoz, vagy a zöld nyilakra a szomszédos térképek eléréséhez.


METAR-TAF: